Year,Month,Day,Hour,Minute,Value (Times are PST for temperature in C)
2010,11,26,00,00,1.60
2010,11,26,00,01,1.60
2010,11,26,00,02,1.60
2010,11,26,00,03,1.60
2010,11,26,00,04,1.60
2010,11,26,00,05,1.60
2010,11,26,00,06,1.60
2010,11,26,00,07,1.60
2010,11,26,00,08,1.70
2010,11,26,00,09,1.60
2010,11,26,00,10,1.60
2010,11,26,00,11,1.60
2010,11,26,00,12,1.60
2010,11,26,00,13,1.60
2010,11,26,00,14,1.60
2010,11,26,00,15,1.60
2010,11,26,00,16,1.50
2010,11,26,00,17,1.50
2010,11,26,00,18,1.50
2010,11,26,00,19,1.40
2010,11,26,00,20,1.40
2010,11,26,00,21,1.40
2010,11,26,00,22,1.40
2010,11,26,00,23,1.40
2010,11,26,00,24,1.30
2010,11,26,00,25,1.30
2010,11,26,00,26,1.30
2010,11,26,00,27,1.30
2010,11,26,00,28,1.40
2010,11,26,00,29,1.30
2010,11,26,00,30,1.30
2010,11,26,00,31,1.30
2010,11,26,00,32,1.30
2010,11,26,00,33,1.30
2010,11,26,00,34,1.30
2010,11,26,00,35,1.30
2010,11,26,00,36,1.30
2010,11,26,00,37,1.30
2010,11,26,00,38,1.30
2010,11,26,00,39,1.30
2010,11,26,00,40,1.30
2010,11,26,00,41,1.30
2010,11,26,00,42,1.30
2010,11,26,00,43,1.30
2010,11,26,00,44,1.40
2010,11,26,00,45,1.40
2010,11,26,00,46,1.40
2010,11,26,00,47,1.50
2010,11,26,00,48,1.50
2010,11,26,00,49,1.50
2010,11,26,00,50,1.60
2010,11,26,00,51,1.60
2010,11,26,00,52,1.60
2010,11,26,00,53,1.60
2010,11,26,00,54,1.60
2010,11,26,00,55,1.70
2010,11,26,00,56,1.70
2010,11,26,00,57,1.70
2010,11,26,00,58,1.70
2010,11,26,00,59,1.70
2010,11,26,01,00,1.70
2010,11,26,01,01,1.70
2010,11,26,01,02,1.70
2010,11,26,01,03,1.70
2010,11,26,01,04,1.70
2010,11,26,01,05,1.70
2010,11,26,01,06,1.70
2010,11,26,01,07,1.70
2010,11,26,01,08,1.70
2010,11,26,01,09,1.70
2010,11,26,01,10,1.70
2010,11,26,01,11,1.70
2010,11,26,01,12,1.70
2010,11,26,01,13,1.70
2010,11,26,01,14,1.70
2010,11,26,01,15,1.70
2010,11,26,01,16,1.70
2010,11,26,01,17,1.70
2010,11,26,01,18,1.70
2010,11,26,01,19,1.70
2010,11,26,01,20,1.70
2010,11,26,01,21,1.70
2010,11,26,01,22,1.70
2010,11,26,01,23,1.70
2010,11,26,01,24,1.70
2010,11,26,01,25,1.70
2010,11,26,01,26,1.70
2010,11,26,01,27,1.70
2010,11,26,01,28,1.70
2010,11,26,01,29,1.70
2010,11,26,01,30,1.70
2010,11,26,01,31,1.70
2010,11,26,01,32,1.70
2010,11,26,01,33,1.70
2010,11,26,01,34,1.70
2010,11,26,01,35,1.70
2010,11,26,01,36,1.70
2010,11,26,01,37,1.70
2010,11,26,01,38,1.80
2010,11,26,01,39,1.80
2010,11,26,01,40,1.80
2010,11,26,01,41,1.70
2010,11,26,01,42,1.70
2010,11,26,01,43,1.70
2010,11,26,01,44,1.70
2010,11,26,01,45,1.70
2010,11,26,01,46,1.80
2010,11,26,01,47,1.80
2010,11,26,01,48,1.80
2010,11,26,01,49,1.80
2010,11,26,01,50,1.80
2010,11,26,01,51,1.80
2010,11,26,01,52,1.80
2010,11,26,01,53,1.80
2010,11,26,01,54,1.80
2010,11,26,01,55,1.80
2010,11,26,01,56,1.80
2010,11,26,01,57,1.90
2010,11,26,01,58,1.90
2010,11,26,01,59,1.90
2010,11,26,02,00,1.90
2010,11,26,02,01,1.90
2010,11,26,02,02,1.90
2010,11,26,02,03,1.90
2010,11,26,02,04,1.90
2010,11,26,02,05,1.90
2010,11,26,02,06,1.90
2010,11,26,02,07,1.90
2010,11,26,02,08,1.90
2010,11,26,02,09,1.90
2010,11,26,02,10,1.90
2010,11,26,02,11,1.90
2010,11,26,02,12,1.80
2010,11,26,02,13,1.80
2010,11,26,02,14,1.80
2010,11,26,02,15,1.70
2010,11,26,02,16,1.70
2010,11,26,02,17,1.70
2010,11,26,02,18,1.70
2010,11,26,02,19,1.60
2010,11,26,02,20,1.60
2010,11,26,02,21,1.60
2010,11,26,02,22,1.60
2010,11,26,02,23,1.60
2010,11,26,02,24,1.60
2010,11,26,02,25,1.60
2010,11,26,02,26,1.50
2010,11,26,02,27,1.50
2010,11,26,02,28,1.60
2010,11,26,02,29,1.60
2010,11,26,02,30,1.60
2010,11,26,02,31,1.70
2010,11,26,02,32,1.70
2010,11,26,02,33,1.80
2010,11,26,02,34,1.80
2010,11,26,02,35,1.80
2010,11,26,02,36,1.80
2010,11,26,02,37,1.90
2010,11,26,02,38,1.90
2010,11,26,02,39,1.90
2010,11,26,02,40,1.90
2010,11,26,02,41,1.90
2010,11,26,02,42,1.90
2010,11,26,02,43,1.90
2010,11,26,02,44,1.90
2010,11,26,02,45,1.90
2010,11,26,02,46,1.90
2010,11,26,02,47,1.90
2010,11,26,02,48,1.90
2010,11,26,02,49,1.90
2010,11,26,02,50,1.90
2010,11,26,02,51,1.80
2010,11,26,02,52,1.80
2010,11,26,02,53,1.90
2010,11,26,02,54,1.80
2010,11,26,02,55,1.80
2010,11,26,02,56,1.80
2010,11,26,02,57,1.80
2010,11,26,02,58,1.80
2010,11,26,02,59,1.80
2010,11,26,03,00,1.80
2010,11,26,03,01,1.80
2010,11,26,03,02,1.70
2010,11,26,03,03,1.70
2010,11,26,03,04,1.70
2010,11,26,03,05,1.70
2010,11,26,03,06,1.70
2010,11,26,03,07,1.70
2010,11,26,03,08,1.60
2010,11,26,03,09,1.60
2010,11,26,03,10,1.60
2010,11,26,03,11,1.60
2010,11,26,03,12,1.60
2010,11,26,03,13,1.50
2010,11,26,03,14,1.50
2010,11,26,03,15,1.50
2010,11,26,03,16,1.40
2010,11,26,03,17,1.40
2010,11,26,03,18,1.40
2010,11,26,03,19,1.40
2010,11,26,03,20,1.40
2010,11,26,03,21,1.30
2010,11,26,03,22,1.30
2010,11,26,03,23,1.30
2010,11,26,03,24,1.30
2010,11,26,03,25,1.30
2010,11,26,03,26,1.30
2010,11,26,03,27,1.30
2010,11,26,03,28,1.30
2010,11,26,03,29,1.30
2010,11,26,03,30,1.30
2010,11,26,03,31,1.30
2010,11,26,03,32,1.30
2010,11,26,03,33,1.30
2010,11,26,03,34,1.40
2010,11,26,03,35,1.40
2010,11,26,03,36,1.40
2010,11,26,03,37,1.40
2010,11,26,03,38,1.40
2010,11,26,03,39,1.30
2010,11,26,03,40,1.40
2010,11,26,03,41,1.40
2010,11,26,03,42,1.30
2010,11,26,03,43,1.30
2010,11,26,03,44,1.30
2010,11,26,03,45,1.30
2010,11,26,03,46,1.30
2010,11,26,03,47,1.40
2010,11,26,03,48,1.40
2010,11,26,03,49,1.40
2010,11,26,03,50,1.40
2010,11,26,03,51,1.40
2010,11,26,03,52,1.40
2010,11,26,03,53,1.40
2010,11,26,03,54,1.40
2010,11,26,03,55,1.40
2010,11,26,03,56,1.40
2010,11,26,03,57,1.40
2010,11,26,03,58,1.50
2010,11,26,03,59,1.50
2010,11,26,04,00,1.50
2010,11,26,04,01,1.50
2010,11,26,04,02,1.50
2010,11,26,04,03,1.60
2010,11,26,04,04,1.60
2010,11,26,04,05,1.60
2010,11,26,04,06,1.60
2010,11,26,04,07,1.60
2010,11,26,04,08,1.60
2010,11,26,04,09,1.70
2010,11,26,04,10,1.70
2010,11,26,04,11,1.70
2010,11,26,04,12,1.70
2010,11,26,04,13,1.70
2010,11,26,04,14,1.70
2010,11,26,04,15,1.70
2010,11,26,04,16,1.70
2010,11,26,04,17,1.70
2010,11,26,04,18,1.70
2010,11,26,04,19,1.80
2010,11,26,04,20,1.80
2010,11,26,04,21,1.80
2010,11,26,04,22,1.80
2010,11,26,04,23,1.90
2010,11,26,04,24,1.90
2010,11,26,04,25,1.90
2010,11,26,04,26,2.00
2010,11,26,04,27,2.00
2010,11,26,04,28,2.10
2010,11,26,04,29,2.10
2010,11,26,04,30,2.20
2010,11,26,04,31,2.20
2010,11,26,04,32,2.30
2010,11,26,04,33,2.30
2010,11,26,04,34,2.40
2010,11,26,04,35,2.50
2010,11,26,04,36,2.60
2010,11,26,04,37,2.70
2010,11,26,04,38,2.80
2010,11,26,04,39,2.90
2010,11,26,04,40,3.00
2010,11,26,04,41,3.10
2010,11,26,04,42,3.20
2010,11,26,04,43,3.30
2010,11,26,04,44,3.40
2010,11,26,04,45,3.50
2010,11,26,04,46,3.60
2010,11,26,04,47,3.70
2010,11,26,04,48,3.80
2010,11,26,04,49,3.90
2010,11,26,04,50,3.90
2010,11,26,04,51,4.00
2010,11,26,04,52,4.00
2010,11,26,04,53,4.10
2010,11,26,04,54,4.10
2010,11,26,04,55,4.10
2010,11,26,04,56,4.10
2010,11,26,04,57,4.10
2010,11,26,04,58,4.20
2010,11,26,04,59,4.20
2010,11,26,05,00,4.30
2010,11,26,05,01,4.30
2010,11,26,05,02,4.30
2010,11,26,05,03,4.30
2010,11,26,05,04,4.30
2010,11,26,05,05,4.40
2010,11,26,05,06,4.40
2010,11,26,05,07,4.40
2010,11,26,05,08,4.40
2010,11,26,05,09,4.40
2010,11,26,05,10,4.40
2010,11,26,05,11,4.50
2010,11,26,05,12,4.40
2010,11,26,05,13,4.50
2010,11,26,05,14,4.50
2010,11,26,05,15,4.50
2010,11,26,05,16,4.60
2010,11,26,05,17,4.60
2010,11,26,05,18,4.60
2010,11,26,05,19,4.70
2010,11,26,05,20,4.80
2010,11,26,05,21,4.80
2010,11,26,05,22,4.80
2010,11,26,05,23,4.80
2010,11,26,05,24,4.80
2010,11,26,05,25,4.80
2010,11,26,05,26,4.90
2010,11,26,05,27,4.90
2010,11,26,05,28,4.90
2010,11,26,05,29,4.90
2010,11,26,05,30,4.80
2010,11,26,05,31,4.80
2010,11,26,05,32,4.80
2010,11,26,05,33,4.80
2010,11,26,05,34,4.90
2010,11,26,05,35,4.90
2010,11,26,05,36,4.90
2010,11,26,05,37,4.90
2010,11,26,05,38,4.90
2010,11,26,05,39,4.90
2010,11,26,05,40,4.90
2010,11,26,05,41,4.90
2010,11,26,05,42,5.00
2010,11,26,05,43,5.00
2010,11,26,05,44,4.90
2010,11,26,05,45,4.90
2010,11,26,05,46,4.90
2010,11,26,05,47,4.90
2010,11,26,05,48,4.90
2010,11,26,05,49,4.90
2010,11,26,05,50,4.90
2010,11,26,05,51,4.90
2010,11,26,05,52,4.90
2010,11,26,05,53,4.90
2010,11,26,05,54,4.90
2010,11,26,05,55,4.90
2010,11,26,05,56,4.90
2010,11,26,05,57,4.90
2010,11,26,05,58,4.90
2010,11,26,05,59,5.00
2010,11,26,06,00,5.00
2010,11,26,06,01,5.00
2010,11,26,06,02,5.00
2010,11,26,06,03,5.00
2010,11,26,06,04,5.00
2010,11,26,06,05,5.10
2010,11,26,06,06,5.10
2010,11,26,06,07,5.00
2010,11,26,06,08,5.00
2010,11,26,06,09,5.00
2010,11,26,06,10,5.00
2010,11,26,06,11,5.00
2010,11,26,06,12,5.00
2010,11,26,06,13,5.00
2010,11,26,06,14,5.00
2010,11,26,06,15,5.00
2010,11,26,06,16,4.90
2010,11,26,06,17,4.90
2010,11,26,06,18,4.90
2010,11,26,06,19,4.80
2010,11,26,06,20,4.80
2010,11,26,06,21,4.80
2010,11,26,06,22,4.90
2010,11,26,06,23,4.90
2010,11,26,06,24,5.00
2010,11,26,06,25,5.00
2010,11,26,06,26,5.00
2010,11,26,06,27,5.00
2010,11,26,06,28,5.00
2010,11,26,06,29,5.00
2010,11,26,06,30,5.00
2010,11,26,06,31,5.00
2010,11,26,06,32,5.00
2010,11,26,06,33,5.00
2010,11,26,06,34,5.00
2010,11,26,06,35,4.90
2010,11,26,06,36,4.90
2010,11,26,06,37,4.90
2010,11,26,06,38,4.90
2010,11,26,06,39,4.80
2010,11,26,06,40,4.80
2010,11,26,06,41,4.80
2010,11,26,06,42,4.80
2010,11,26,06,43,4.70
2010,11,26,06,44,4.70
2010,11,26,06,45,4.70
2010,11,26,06,46,4.70
2010,11,26,06,47,4.70
2010,11,26,06,48,4.60
2010,11,26,06,49,4.60
2010,11,26,06,50,4.60
2010,11,26,06,51,4.60
2010,11,26,06,52,4.50
2010,11,26,06,53,4.50
2010,11,26,06,54,4.50
2010,11,26,06,55,4.40
2010,11,26,06,56,4.40
2010,11,26,06,57,4.50
2010,11,26,06,58,4.70
2010,11,26,06,59,4.80
2010,11,26,07,00,4.80
2010,11,26,07,01,4.80
2010,11,26,07,02,4.80
2010,11,26,07,03,4.70
2010,11,26,07,04,4.70
2010,11,26,07,05,4.80
2010,11,26,07,06,4.70
2010,11,26,07,07,4.70
2010,11,26,07,08,4.70
2010,11,26,07,09,4.60
2010,11,26,07,10,4.60
2010,11,26,07,11,4.50
2010,11,26,07,12,4.50
2010,11,26,07,13,4.40
2010,11,26,07,14,4.30
2010,11,26,07,15,4.30
2010,11,26,07,16,4.30
2010,11,26,07,17,4.30
2010,11,26,07,18,4.30
2010,11,26,07,19,4.20
2010,11,26,07,20,4.20
2010,11,26,07,21,4.10
2010,11,26,07,22,4.10
2010,11,26,07,23,4.10
2010,11,26,07,24,4.00
2010,11,26,07,25,4.00
2010,11,26,07,26,4.00
2010,11,26,07,27,3.90
2010,11,26,07,28,3.90
2010,11,26,07,29,3.90
2010,11,26,07,30,3.90
2010,11,26,07,31,3.90
2010,11,26,07,32,3.90
2010,11,26,07,33,4.00
2010,11,26,07,34,4.00
2010,11,26,07,35,4.00
2010,11,26,07,36,3.90
2010,11,26,07,37,3.90
2010,11,26,07,38,3.90
2010,11,26,07,39,3.80
2010,11,26,07,40,3.80
2010,11,26,07,41,3.80
2010,11,26,07,42,3.80
2010,11,26,07,43,3.70
2010,11,26,07,44,3.70
2010,11,26,07,45,3.70
2010,11,26,07,46,3.70
2010,11,26,07,47,3.70
2010,11,26,07,48,3.70
2010,11,26,07,49,3.70
2010,11,26,07,50,3.80
2010,11,26,07,51,3.90
2010,11,26,07,52,3.90
2010,11,26,07,53,3.90
2010,11,26,07,54,3.90
2010,11,26,07,55,3.90
2010,11,26,07,56,3.90
2010,11,26,07,57,3.90
2010,11,26,07,58,3.90
2010,11,26,07,59,3.90
2010,11,26,08,00,3.80
2010,11,26,08,01,3.80
2010,11,26,08,02,3.80
2010,11,26,08,03,3.80
2010,11,26,08,04,3.90
2010,11,26,08,05,3.90
2010,11,26,08,06,3.90
2010,11,26,08,07,4.00
2010,11,26,08,08,4.10
2010,11,26,08,09,4.20
2010,11,26,08,10,4.30
2010,11,26,08,11,4.30
2010,11,26,08,12,4.40
2010,11,26,08,13,4.40
2010,11,26,08,14,4.40
2010,11,26,08,15,4.40
2010,11,26,08,16,4.40
2010,11,26,08,17,4.40
2010,11,26,08,18,4.40
2010,11,26,08,19,4.40
2010,11,26,08,20,4.40
2010,11,26,08,21,4.30
2010,11,26,08,22,4.30
2010,11,26,08,23,4.30
2010,11,26,08,24,4.30
2010,11,26,08,25,4.30
2010,11,26,08,26,4.30
2010,11,26,08,27,4.30
2010,11,26,08,28,4.20
2010,11,26,08,29,4.20
2010,11,26,08,30,4.20
2010,11,26,08,31,4.20
2010,11,26,08,32,4.20
2010,11,26,08,33,4.20
2010,11,26,08,34,4.30
2010,11,26,08,35,4.30
2010,11,26,08,36,4.30
2010,11,26,08,37,4.30
2010,11,26,08,38,4.40
2010,11,26,08,39,4.40
2010,11,26,08,40,4.50
2010,11,26,08,41,4.50
2010,11,26,08,42,4.60
2010,11,26,08,43,4.60
2010,11,26,08,44,4.50
2010,11,26,08,45,4.50
2010,11,26,08,46,4.50
2010,11,26,08,47,4.50
2010,11,26,08,48,4.60
2010,11,26,08,49,4.70
2010,11,26,08,50,4.70
2010,11,26,08,51,4.80
2010,11,26,08,52,4.80
2010,11,26,08,53,4.80
2010,11,26,08,54,4.80
2010,11,26,08,55,4.80
2010,11,26,08,56,4.80
2010,11,26,08,57,4.70
2010,11,26,08,58,4.70
2010,11,26,08,59,4.70
2010,11,26,09,00,4.70
2010,11,26,09,01,4.70
2010,11,26,09,02,4.70
2010,11,26,09,03,4.60
2010,11,26,09,04,4.60
2010,11,26,09,05,4.60
2010,11,26,09,06,4.60
2010,11,26,09,07,4.60
2010,11,26,09,08,4.60
2010,11,26,09,09,4.60
2010,11,26,09,10,4.60
2010,11,26,09,11,4.60
2010,11,26,09,12,4.60
2010,11,26,09,13,4.60
2010,11,26,09,14,4.60
2010,11,26,09,15,4.60
2010,11,26,09,16,4.60
2010,11,26,09,17,4.50
2010,11,26,09,18,4.50
2010,11,26,09,19,4.40
2010,11,26,09,20,4.40
2010,11,26,09,21,4.30
2010,11,26,09,22,4.20
2010,11,26,09,23,4.20
2010,11,26,09,24,4.10
2010,11,26,09,25,4.10
2010,11,26,09,26,4.00
2010,11,26,09,27,4.00
2010,11,26,09,28,4.00
2010,11,26,09,29,4.00
2010,11,26,09,30,4.10
2010,11,26,09,31,4.10
2010,11,26,09,32,4.20
2010,11,26,09,33,4.30
2010,11,26,09,34,4.30
2010,11,26,09,35,4.30
2010,11,26,09,36,4.30
2010,11,26,09,37,4.30
2010,11,26,09,38,4.30
2010,11,26,09,39,4.40
2010,11,26,09,40,4.40
2010,11,26,09,41,4.40
2010,11,26,09,42,4.40
2010,11,26,09,43,4.40
2010,11,26,09,44,4.40
2010,11,26,09,45,4.40
2010,11,26,09,46,4.50
2010,11,26,09,47,4.50
2010,11,26,09,48,4.50
2010,11,26,09,49,4.50
2010,11,26,09,50,4.50
2010,11,26,09,51,4.40
2010,11,26,09,52,4.40
2010,11,26,09,53,4.40
2010,11,26,09,54,4.30
2010,11,26,09,55,4.30
2010,11,26,09,56,4.30
2010,11,26,09,57,4.30
2010,11,26,09,58,4.30
2010,11,26,09,59,4.30
2010,11,26,10,00,4.30
2010,11,26,10,01,4.30
2010,11,26,10,02,4.30
2010,11,26,10,03,4.40
2010,11,26,10,04,4.50
2010,11,26,10,05,4.60
2010,11,26,10,06,4.70
2010,11,26,10,07,4.70
2010,11,26,10,08,4.80
2010,11,26,10,09,4.80
2010,11,26,10,10,4.80
2010,11,26,10,11,4.80
2010,11,26,10,12,4.80
2010,11,26,10,13,4.80
2010,11,26,10,14,4.90
2010,11,26,10,15,5.00
2010,11,26,10,16,5.10
2010,11,26,10,17,5.10
2010,11,26,10,18,5.20
2010,11,26,10,19,5.20
2010,11,26,10,20,5.30
2010,11,26,10,21,5.30
2010,11,26,10,22,5.40
2010,11,26,10,23,5.40
2010,11,26,10,24,5.40
2010,11,26,10,25,5.50
2010,11,26,10,26,5.50
2010,11,26,10,27,5.60
2010,11,26,10,28,5.60
2010,11,26,10,29,5.60
2010,11,26,10,30,5.70
2010,11,26,10,31,5.70
2010,11,26,10,32,5.70
2010,11,26,10,33,5.80
2010,11,26,10,34,5.80
2010,11,26,10,35,5.80
2010,11,26,10,36,5.90
2010,11,26,10,37,5.90
2010,11,26,10,38,5.90
2010,11,26,10,39,6.00
2010,11,26,10,40,6.00
2010,11,26,10,41,6.00
2010,11,26,10,42,6.00
2010,11,26,10,43,6.00
2010,11,26,10,44,6.00
2010,11,26,10,45,6.00
2010,11,26,10,46,6.00
2010,11,26,10,47,6.00
2010,11,26,10,48,6.00
2010,11,26,10,49,6.00
2010,11,26,10,50,5.90
2010,11,26,10,51,5.90
2010,11,26,10,52,5.90
2010,11,26,10,53,5.90
2010,11,26,10,54,5.90
2010,11,26,10,55,5.90
2010,11,26,10,56,5.90
2010,11,26,10,57,5.90
2010,11,26,10,58,5.90
2010,11,26,10,59,5.90
2010,11,26,11,00,5.90
2010,11,26,11,01,5.90
2010,11,26,11,02,5.90
2010,11,26,11,03,5.90
2010,11,26,11,04,5.90
2010,11,26,11,05,5.90
2010,11,26,11,06,5.90
2010,11,26,11,07,5.90
2010,11,26,11,08,5.90
2010,11,26,11,09,5.90
2010,11,26,11,10,5.90
2010,11,26,11,11,5.90
2010,11,26,11,12,5.90
2010,11,26,11,13,5.90
2010,11,26,11,14,5.90
2010,11,26,11,15,5.90
2010,11,26,11,16,5.90
2010,11,26,11,17,5.90
2010,11,26,11,18,5.90
2010,11,26,11,19,5.90
2010,11,26,11,20,5.90
2010,11,26,11,21,5.90
2010,11,26,11,22,5.90
2010,11,26,11,23,5.90
2010,11,26,11,24,5.90
2010,11,26,11,25,5.90
2010,11,26,11,26,5.90
2010,11,26,11,27,5.90
2010,11,26,11,28,5.90
2010,11,26,11,29,5.90
2010,11,26,11,30,5.90
2010,11,26,11,31,5.90
2010,11,26,11,32,5.90
2010,11,26,11,33,5.90
2010,11,26,11,34,5.90
2010,11,26,11,35,5.90
2010,11,26,11,36,5.90
2010,11,26,11,37,5.90
2010,11,26,11,38,5.90
2010,11,26,11,39,5.90
2010,11,26,11,40,5.90
2010,11,26,11,41,5.90
2010,11,26,11,42,5.90
2010,11,26,11,43,5.90
2010,11,26,11,44,5.90
2010,11,26,11,45,5.90
2010,11,26,11,46,5.90
2010,11,26,11,47,5.80
2010,11,26,11,48,5.80
2010,11,26,11,49,5.80
2010,11,26,11,50,5.80
2010,11,26,11,51,5.80
2010,11,26,11,52,5.80
2010,11,26,11,53,5.80
2010,11,26,11,54,5.80
2010,11,26,11,55,5.70
2010,11,26,11,56,5.70
2010,11,26,11,57,5.70
2010,11,26,11,58,5.70
2010,11,26,11,59,5.70
2010,11,26,12,00,5.70
2010,11,26,12,01,5.70
2010,11,26,12,02,5.70
2010,11,26,12,03,5.70
2010,11,26,12,04,5.60
2010,11,26,12,05,5.60
2010,11,26,12,06,5.60
2010,11,26,12,07,5.60
2010,11,26,12,08,5.60
2010,11,26,12,09,5.60
2010,11,26,12,10,5.60
2010,11,26,12,11,5.60
2010,11,26,12,12,5.60
2010,11,26,12,13,5.60
2010,11,26,12,14,5.60
2010,11,26,12,15,5.60
2010,11,26,12,16,5.60
2010,11,26,12,17,5.60
2010,11,26,12,18,5.60
2010,11,26,12,19,5.60
2010,11,26,12,20,5.60
2010,11,26,12,21,5.60
2010,11,26,12,22,5.60
2010,11,26,12,23,5.50
2010,11,26,12,24,5.50
2010,11,26,12,25,5.50
2010,11,26,12,26,5.50
2010,11,26,12,27,5.40
2010,11,26,12,28,5.40
2010,11,26,12,29,5.40
2010,11,26,12,30,5.40
2010,11,26,12,31,5.40
2010,11,26,12,32,5.40
2010,11,26,12,33,5.40
2010,11,26,12,34,5.40
2010,11,26,12,35,5.30
2010,11,26,12,36,5.30
2010,11,26,12,37,5.30
2010,11,26,12,38,5.30
2010,11,26,12,39,5.30
2010,11,26,12,40,5.30
2010,11,26,12,41,5.30
2010,11,26,12,42,5.30
2010,11,26,12,43,5.20
2010,11,26,12,44,5.20
2010,11,26,12,45,5.20
2010,11,26,12,46,5.20
2010,11,26,12,47,5.20
2010,11,26,12,48,5.20
2010,11,26,12,49,5.10
2010,11,26,12,50,5.10
2010,11,26,12,51,5.10
2010,11,26,12,52,5.10
2010,11,26,12,53,5.10
2010,11,26,12,54,5.10
2010,11,26,12,55,5.10
2010,11,26,12,56,5.10
2010,11,26,12,57,5.10
2010,11,26,12,58,5.10
2010,11,26,12,59,5.00
2010,11,26,13,00,5.00
2010,11,26,13,01,5.00
2010,11,26,13,02,5.00
2010,11,26,13,03,5.00
2010,11,26,13,04,5.00
2010,11,26,13,05,5.00
2010,11,26,13,06,5.00
2010,11,26,13,07,5.10
2010,11,26,13,08,5.10
2010,11,26,13,09,5.10
2010,11,26,13,10,5.10
2010,11,26,13,11,5.20
2010,11,26,13,12,5.20
2010,11,26,13,13,5.20
2010,11,26,13,14,5.20
2010,11,26,13,15,5.20
2010,11,26,13,16,5.20
2010,11,26,13,17,5.30
2010,11,26,13,18,5.30
2010,11,26,13,19,5.30
2010,11,26,13,20,5.30
2010,11,26,13,21,5.30
2010,11,26,13,22,5.30
2010,11,26,13,23,5.30
2010,11,26,13,24,5.30
2010,11,26,13,25,5.30
2010,11,26,13,26,5.30
2010,11,26,13,27,5.40
2010,11,26,13,28,5.30
2010,11,26,13,29,5.30
2010,11,26,13,30,5.30
2010,11,26,13,31,5.30
2010,11,26,13,32,5.30
2010,11,26,13,33,5.30
2010,11,26,13,34,5.30
2010,11,26,13,35,5.30
2010,11,26,13,36,5.30
2010,11,26,13,37,5.30
2010,11,26,13,38,5.30
2010,11,26,13,39,5.30
2010,11,26,13,40,5.20
2010,11,26,13,41,5.20
2010,11,26,13,42,5.20
2010,11,26,13,43,5.20
2010,11,26,13,44,5.20
2010,11,26,13,45,5.20
2010,11,26,13,46,5.20
2010,11,26,13,47,5.20
2010,11,26,13,48,5.20
2010,11,26,13,49,5.10
2010,11,26,13,50,5.10
2010,11,26,13,51,5.10
2010,11,26,13,52,5.10
2010,11,26,13,53,5.10
2010,11,26,13,54,5.10
2010,11,26,13,55,5.10
2010,11,26,13,56,5.10
2010,11,26,13,57,5.10
2010,11,26,13,58,5.10
2010,11,26,13,59,5.00
2010,11,26,14,00,5.00
2010,11,26,14,01,5.00
2010,11,26,14,02,5.00
2010,11,26,14,03,5.00
2010,11,26,14,04,5.00
2010,11,26,14,05,5.00
2010,11,26,14,06,5.00
2010,11,26,14,07,5.00
2010,11,26,14,08,5.00
2010,11,26,14,09,5.00
2010,11,26,14,10,5.00
2010,11,26,14,11,5.00
2010,11,26,14,12,5.00
2010,11,26,14,13,5.00
2010,11,26,14,14,4.90
2010,11,26,14,15,4.90
2010,11,26,14,16,4.90
2010,11,26,14,17,4.90
2010,11,26,14,18,4.90
2010,11,26,14,19,4.90
2010,11,26,14,20,4.90
2010,11,26,14,21,4.90
2010,11,26,14,22,4.90
2010,11,26,14,23,4.90
2010,11,26,14,24,4.90
2010,11,26,14,25,4.90
2010,11,26,14,26,4.90
2010,11,26,14,27,4.90
2010,11,26,14,28,4.80
2010,11,26,14,29,4.80
2010,11,26,14,30,4.80
2010,11,26,14,31,4.80
2010,11,26,14,32,4.80
2010,11,26,14,33,4.80
2010,11,26,14,34,4.80
2010,11,26,14,35,4.80
2010,11,26,14,36,4.80
2010,11,26,14,37,4.70
2010,11,26,14,38,4.70
2010,11,26,14,39,4.70
2010,11,26,14,40,4.70
2010,11,26,14,41,4.70
2010,11,26,14,42,4.60
2010,11,26,14,43,4.60
2010,11,26,14,44,4.60
2010,11,26,14,45,4.60
2010,11,26,14,46,4.60
2010,11,26,14,47,4.60
2010,11,26,14,48,4.60
2010,11,26,14,49,4.60
2010,11,26,14,50,4.60
2010,11,26,14,51,4.60
2010,11,26,14,52,4.60
2010,11,26,14,53,4.60
2010,11,26,14,54,4.60
2010,11,26,14,55,4.60
2010,11,26,14,56,4.60
2010,11,26,14,57,4.70
2010,11,26,14,58,4.70
2010,11,26,14,59,4.70
2010,11,26,15,00,4.70
2010,11,26,15,01,4.70
2010,11,26,15,02,4.70
2010,11,26,15,03,4.70
2010,11,26,15,04,4.70
2010,11,26,15,05,4.70
2010,11,26,15,06,4.70
2010,11,26,15,07,4.70
2010,11,26,15,08,4.70
2010,11,26,15,09,4.60
2010,11,26,15,10,4.60
2010,11,26,15,11,4.60
2010,11,26,15,12,4.60
2010,11,26,15,13,4.60
2010,11,26,15,14,4.60
2010,11,26,15,15,4.60
2010,11,26,15,16,4.50
2010,11,26,15,17,4.50
2010,11,26,15,18,4.50
2010,11,26,15,19,4.50
2010,11,26,15,20,4.50
2010,11,26,15,21,4.40
2010,11,26,15,22,4.40
2010,11,26,15,23,4.40
2010,11,26,15,24,4.40
2010,11,26,15,25,4.40
2010,11,26,15,26,4.40
2010,11,26,15,27,4.40
2010,11,26,15,28,4.50
2010,11,26,15,29,4.50
2010,11,26,15,30,4.50
2010,11,26,15,31,4.50
2010,11,26,15,32,4.50
2010,11,26,15,33,4.50
2010,11,26,15,34,4.50
2010,11,26,15,35,4.50
2010,11,26,15,36,4.50
2010,11,26,15,37,4.50
2010,11,26,15,38,4.50
2010,11,26,15,39,4.50
2010,11,26,15,40,4.50
2010,11,26,15,41,4.50
2010,11,26,15,42,4.50
2010,11,26,15,43,4.50
2010,11,26,15,44,4.50
2010,11,26,15,45,4.40
2010,11,26,15,46,4.40
2010,11,26,15,47,4.40
2010,11,26,15,48,4.40
2010,11,26,15,49,4.40
2010,11,26,15,50,4.30
2010,11,26,15,51,4.30
2010,11,26,15,52,4.30
2010,11,26,15,53,4.40
2010,11,26,15,54,4.40
2010,11,26,15,55,4.30
2010,11,26,15,56,4.30
2010,11,26,15,57,4.30
2010,11,26,15,58,4.30
2010,11,26,15,59,4.30
2010,11,26,16,00,4.30
2010,11,26,16,01,4.30
2010,11,26,16,02,4.30
2010,11,26,16,03,4.30
2010,11,26,16,04,4.30
2010,11,26,16,05,4.30
2010,11,26,16,06,4.30
2010,11,26,16,07,4.20
2010,11,26,16,08,4.20
2010,11,26,16,09,4.20
2010,11,26,16,10,4.20
2010,11,26,16,11,4.20
2010,11,26,16,12,4.20
2010,11,26,16,13,4.20
2010,11,26,16,14,4.20
2010,11,26,16,15,4.20
2010,11,26,16,16,4.20
2010,11,26,16,17,4.20
2010,11,26,16,18,4.20
2010,11,26,16,19,4.20
2010,11,26,16,20,4.20
2010,11,26,16,21,4.20
2010,11,26,16,22,4.20
2010,11,26,16,23,4.20
2010,11,26,16,24,4.20
2010,11,26,16,25,4.20
2010,11,26,16,26,4.20
2010,11,26,16,27,4.20
2010,11,26,16,28,4.20
2010,11,26,16,29,4.20
2010,11,26,16,30,4.20
2010,11,26,16,31,4.20
2010,11,26,16,32,4.20
2010,11,26,16,33,4.20
2010,11,26,16,34,4.20
2010,11,26,16,35,4.20
2010,11,26,16,36,4.10
2010,11,26,16,37,4.10
2010,11,26,16,38,4.10
2010,11,26,16,39,4.10
2010,11,26,16,40,4.10
2010,11,26,16,41,4.10
2010,11,26,16,42,4.10
2010,11,26,16,43,4.10
2010,11,26,16,44,4.10
2010,11,26,16,45,4.10
2010,11,26,16,46,4.00
2010,11,26,16,47,4.00
2010,11,26,16,48,4.00
2010,11,26,16,49,4.00
2010,11,26,16,50,4.00
2010,11,26,16,51,4.00
2010,11,26,16,52,4.00
2010,11,26,16,53,3.90
2010,11,26,16,54,3.90
2010,11,26,16,55,3.90
2010,11,26,16,56,3.90
2010,11,26,16,57,3.90
2010,11,26,16,58,3.90
2010,11,26,16,59,3.90
2010,11,26,17,00,3.90
2010,11,26,17,01,3.90
2010,11,26,17,02,3.90
2010,11,26,17,03,3.90
2010,11,26,17,04,3.90
2010,11,26,17,05,3.90
2010,11,26,17,06,3.90
2010,11,26,17,07,3.90
2010,11,26,17,08,3.80
2010,11,26,17,09,3.80
2010,11,26,17,10,3.80
2010,11,26,17,11,3.80
2010,11,26,17,12,3.80
2010,11,26,17,13,3.80
2010,11,26,17,14,3.80
2010,11,26,17,15,3.80
2010,11,26,17,16,3.80
2010,11,26,17,17,3.80
2010,11,26,17,18,3.80
2010,11,26,17,19,3.80
2010,11,26,17,20,3.80
2010,11,26,17,21,3.90
2010,11,26,17,22,3.90
2010,11,26,17,23,3.80
2010,11,26,17,24,3.80
2010,11,26,17,25,3.80
2010,11,26,17,26,3.80
2010,11,26,17,27,3.80
2010,11,26,17,28,3.80
2010,11,26,17,29,3.70
2010,11,26,17,30,3.70
2010,11,26,17,31,3.70
2010,11,26,17,32,3.70
2010,11,26,17,33,3.70
2010,11,26,17,34,3.60
2010,11,26,17,35,3.60
2010,11,26,17,36,3.60
2010,11,26,17,37,3.70
2010,11,26,17,38,3.70
2010,11,26,17,39,3.70
2010,11,26,17,40,3.70
2010,11,26,17,41,3.70
2010,11,26,17,42,3.70
2010,11,26,17,43,3.70
2010,11,26,17,44,3.70
2010,11,26,17,45,3.70
2010,11,26,17,46,3.70
2010,11,26,17,47,3.70
2010,11,26,17,48,3.70
2010,11,26,17,49,3.70
2010,11,26,17,50,3.70
2010,11,26,17,51,3.70
2010,11,26,17,52,3.70
2010,11,26,17,53,3.80
2010,11,26,17,54,3.80
2010,11,26,17,55,3.80
2010,11,26,17,56,3.80
2010,11,26,17,57,3.80
2010,11,26,17,58,3.80
2010,11,26,17,59,3.80
2010,11,26,18,00,3.80
2010,11,26,18,01,3.80
2010,11,26,18,02,3.80
2010,11,26,18,03,3.80
2010,11,26,18,04,3.80
2010,11,26,18,05,3.80
2010,11,26,18,06,3.80